{"data":{"norad_id":59806,"epoch":"2026-05-25T04:10:08.232960Z","epoch_age_seconds":60233,"freshness":"FRESH","line1":"1 59806U 24094B   26145.17370640  .00005660  00000+0  29461-3 0  9994","line2":"2 59806  97.3900 216.7811 0004910 191.1499 168.9626 15.16403354111678","mean_motion":15.16403354,"eccentricity":0.000491,"inclination_deg":97.39,"raan_deg":216.7811,"arg_perigee_deg":191.1499,"mean_anomaly_deg":168.9626,"bstar":0.00029461,"rev_number":11167,"period_min":94.961541479154,"perigee_km":513.33600793917,"apogee_km":520.10675887168,"semimajor_km":6894.8583834054,"source":"CELESTRAK","updated_at":"2026-05-25T13:38:01.684335Z"}}